| time (UTC) | temp C | wind direction | speed KPH | gust KPH | rain 1hr cm | rain 24hr cm | rain mn cm | humidity % | barometer mb |
| 20260902184558 | 11 | 210 | 0.0 | 6.4 | 0.00 | 0.00 | 0.00 | 82 | 1019.6 |
| 20260902183057 | 11 | 146 | 3.2 | 8.0 | 0.00 | 0.00 | 0.00 | 83 | 1019.4 |
| 20260902181557 | 11 | 195 | 0.0 | 3.2 | 0.00 | 0.00 | 0.00 | 83 | 1019.2 |
| 20260902180057 | 11 | 176 | 0.0 | 3.2 | 0.00 | 0.00 | 0.00 | 83 | 1019.3 |
| 20260902174555 | 11 | 181 | 0.0 | 4.8 | 0.00 | 0.00 | 0.00 | 82 | 1019.2 |
| 20260902173055 | 11 | 139 | 0.0 | 3.2 | 0.00 | 0.00 | 0.00 | 83 | 1019.2 |
| 20260902171605 | 11 | 180 | 0.0 | 9.7 | 0.00 | 0.00 | 0.00 | 84 | 1019.2 |
| 20260902170053 | 11 | 134 | 0.0 | 1.6 | 0.00 | 0.00 | 0.00 | 84 | 1019.0 |
| 20260902164551 | 11 | 131 | 0.0 | 1.6 | 0.00 | 0.00 | 0.00 | 85 | 1019.2 |
| 20260902163053 | 11 | 131 | 0.0 | 1.6 | 0.00 | 0.00 | 0.00 | 86 | 1019.0 |
| 20260902161550 | 11 | 131 | 0.0 | 1.6 | 0.00 | 0.00 | 0.00 | 86 | 1019.2 |
| 20260902160104 | 11 | 157 | 0.0 | 1.6 | 0.00 | 0.00 | 0.00 | 85 | 1019.1 |
| 20260902154555 | 12 | 156 | 0.0 | 6.4 | 0.00 | 0.00 | 0.00 | 85 | 1019.0 |
| 20260902153047 | 12 | 347 | 0.0 | 4.8 | 0.00 | 0.00 | 0.00 | 85 | 1018.8 |
| 20260902151543 | 12 | 279 | 0.0 | 4.8 | 0.00 | 0.00 | 0.00 | 85 | 1019.1 |
| 20260902150042 | 11 | 287 | 3.2 | 8.0 | 0.00 | 0.00 | 0.00 | 87 | 1019.3 |
| 20260902144541 | 12 | 146 | 0.0 | 1.6 | 0.00 | 0.00 | 0.00 | 85 | 1019.4 |
| 20260902143044 | 12 | 116 | 0.0 | 1.6 | 0.00 | 0.00 | 0.00 | 84 | 1019.5 |
| 20260902141537 | 12 | 178 | 0.0 | 6.4 | 0.00 | 0.00 | 0.00 | 83 | 1019.5 |
| 20260902140038 | 12 | 153 | 1.6 | 6.4 | 0.00 | 0.00 | 0.00 | 82 | 1019.7 |
| 20260902134539 | 12 | 166 | 1.6 | 8.0 | 0.00 | 0.00 | 0.00 | 81 | 1019.4 |
| 20260902133043 | 12 | 176 | 1.6 | 8.0 | 0.00 | 0.00 | 0.00 | 82 | 1019.5 |
| 20260902131535 | 12 | 251 | 4.8 | 9.7 | 0.00 | 0.00 | 0.00 | 83 | 1019.4 |
| 20260902130031 | 12 | 130 | 0.0 | 6.4 | 0.00 | 0.00 | 0.00 | 84 | 1019.5 |
| 20260902124529 | 12 | 240 | 3.2 | 11.3 | 0.00 | 0.00 | 0.00 | 83 | 1019.5 |
| 20260902123030 | 12 | 178 | 1.6 | 12.9 | 0.00 | 0.00 | 0.00 | 83 | 1019.4 |
| 20260902121527 | 12 | 186 | 3.2 | 9.7 | 0.00 | 0.00 | 0.00 | 83 | 1019.3 |
| 20260902120033 | 12 | 176 | 1.6 | 9.7 | 0.00 | 0.00 | 0.00 | 83 | 1019.1 |
| 20260902114523 | 12 | 174 | 0.0 | 8.0 | 0.00 | 0.00 | 0.00 | 84 | 1019.2 |
| 20260902113024 | 12 | 191 | 1.6 | 11.3 | 0.00 | 0.00 | 0.00 | 84 | 1019.0 |
| 20260902111538 | 12 | 195 | 1.6 | 6.4 | 0.00 | 0.00 | 0.00 | 84 | 1018.9 |
| 20260902110048 | 13 | 228 | 3.2 | 9.7 | 0.00 | 0.00 | 0.00 | 84 | 1019.1 |
| 20260902104527 | 13 | 293 | 3.2 | 8.0 | 0.00 | 0.00 | 0.00 | 84 | 1019.1 |
| 20260902103020 | 13 | 237 | 3.2 | 9.7 | 0.00 | 0.00 | 0.00 | 83 | 1018.9 |
| 20260902101521 | 13 | 200 | 1.6 | 14.5 | 0.00 | 0.00 | 0.00 | 83 | 1018.8 |
| 20260902100020 | 13 | 205 | 3.2 | 9.7 | 0.00 | 0.00 | 0.00 | 83 | 1018.8 |
| 20260902094521 | 13 | 197 | 1.6 | 9.7 | 0.00 | 0.00 | 0.00 | 83 | 1018.9 |
| 20260902093018 | 13 | 226 | 1.6 | 12.9 | 0.00 | 0.00 | 0.00 | 83 | 1018.8 |
| 20260902091519 | 13 | 200 | 3.2 | 11.3 | 0.00 | 0.00 | 0.00 | 83 | 1018.9 |
| 20260902090018 | 13 | 211 | 3.2 | 16.1 | 0.00 | 0.00 | 0.00 | 84 | 1018.8 |
| 20260902084516 | 13 | 188 | 3.2 | 12.9 | 0.00 | 0.00 | 0.00 | 85 | 1018.9 |
| 20260902083017 | 13 | 229 | 4.8 | 12.9 | 0.00 | 0.00 | 0.00 | 83 | 1018.7 |
| 20260902081516 | 13 | 216 | 3.2 | 11.3 | 0.00 | 0.00 | 0.00 | 79 | 1018.6 |
| 20260902080016 | 13 | 267 | 1.6 | 6.4 | 0.00 | 0.00 | 0.00 | 79 | 1018.5 |
| 20260902074515 | 14 | 205 | 1.6 | 9.7 | 0.00 | 0.00 | 0.00 | 79 | 1018.5 |
| 20260902073014 | 14 | 231 | 3.2 | 11.3 | 0.00 | 0.00 | 0.00 | 78 | 1018.6 |
| 20260902071514 | 14 | 287 | 8.0 | 17.7 | 0.00 | 0.00 | 0.00 | 77 | 1018.4 |
| 20260902070013 | 14 | 210 | 4.8 | 14.5 | 0.00 | 0.00 | 0.00 | 76 | 1018.1 |
| 20260902064613 | 14 | 350 | 4.8 | 17.7 | 0.00 | 0.00 | 0.00 | 75 | 1018.1 |
| 20260902063024 | 14 | 224 | 4.8 | 12.9 | 0.00 | 0.00 | 0.00 | 75 | 1018.0 |
| 20260902061512 | 15 | 200 | 1.6 | 12.9 | 0.00 | 0.00 | 0.00 | 74 | 1018.2 |
| 20260902060010 | 15 | 217 | 3.2 | 6.4 | 0.00 | 0.00 | 0.00 | 75 | 1017.9 |
| 20260902054518 | 15 | 212 | 1.6 | 8.0 | 0.00 | 0.00 | 0.00 | 74 | 1017.9 |
| 20260902053017 | 15 | 200 | 3.2 | 17.7 | 0.00 | 0.00 | 0.00 | 72 | 1017.8 |
| 20260902051508 | 16 | 266 | 4.8 | 8.0 | 0.00 | 0.00 | 0.00 | 70 | 1017.9 |
| 20260902050009 | 16 | 170 | 1.6 | 9.7 | 0.00 | 0.00 | 0.00 | 68 | 1017.7 |
| 20260902044506 | 17 | 184 | 4.8 | 14.5 | 0.00 | 0.00 | 0.00 | 68 | 1017.4 |
| 20260902043005 | 17 | 213 | 4.8 | 12.9 | 0.00 | 0.00 | 0.00 | 69 | 1017.3 |
| 20260902041505 | 16 | 255 | 4.8 | 19.3 | 0.00 | 0.00 | 0.00 | 71 | 1017.4 |
| 20260902040005 | 16 | 231 | 4.8 | 16.1 | 0.00 | 0.00 | 0.00 | 70 | 1017.5 |
| 20260902034503 | 16 | 311 | 4.8 | 17.7 | 0.00 | 0.00 | 0.00 | 70 | 1017.4 |
| 20260902033003 | 16 | 277 | 6.4 | 11.3 | 0.00 | 0.00 | 0.00 | 71 | 1017.6 |
| 20260902031503 | 16 | 251 | 8.0 | 22.5 | 0.00 | 0.00 | 0.00 | 69 | 1017.6 |
| 20260902030002 | 16 | 259 | 4.8 | 12.9 | 0.00 | 0.00 | 0.00 | 72 | 1017.6 |
| 20260902024601 | 16 | 253 | 6.4 | 27.4 | 0.00 | 0.00 | 0.00 | 71 | 1017.6 |
| 20260902023102 | 16 | 226 | 6.4 | 17.7 | 0.00 | 0.00 | 0.00 | 68 | 1017.5 |
| 20260902021608 | 17 | 173 | 9.7 | 20.9 | 0.00 | 0.00 | 0.00 | 67 | 1017.7 |
| 20260902020104 | 17 | 240 | 9.7 | 19.3 | 0.00 | 0.00 | 0.00 | 67 | 1017.7 |
| 20260902014559 | 17 | 222 | 3.2 | 19.3 | 0.00 | 0.00 | 0.00 | 69 | 1017.7 |
| 20260902013156 | 17 | 204 | 4.8 | 14.5 | 0.00 | 0.00 | 0.00 | 70 | 1017.9 |
| 20260902011554 | 17 | 263 | 3.2 | 16.1 | 0.00 | 0.00 | 0.00 | 69 | 1018.0 |
| 20260902010054 | 17 | 317 | 6.4 | 20.9 | 0.00 | 0.00 | 0.00 | 70 | 1018.2 |
| 20260902004551 | 16 | 183 | 1.6 | 8.0 | 0.00 | 0.00 | 0.00 | 73 | 1018.5 |
| 20260902003051 | 16 | 150 | 1.6 | 4.8 | 0.00 | 0.00 | 0.00 | 74 | 1018.3 |
| 20260902001550 | 16 | 181 | 1.6 | 19.3 | 0.00 | 0.00 | 0.00 | 73 | 1018.6 |
| 20260902000052 | 16 | 207 | 4.8 | 19.3 | 0.00 | 0.00 | 0.00 | 74 | 1018.6 |
| 20260901234553 | 15 | 328 | 4.8 | 11.3 | 0.00 | 0.00 | 0.00 | 76 | 1019.0 |
| 20260901233041 | 15 | 285 | 4.8 | 16.1 | 0.00 | 0.00 | 0.00 | 76 | 1019.0 |
| 20260901231537 | 15 | 167 | 3.2 | 12.9 | 0.00 | 0.00 | 0.00 | 78 | 1019.0 |
| 20260901230042 | 15 | 174 | 3.2 | 6.4 | 0.00 | 0.00 | 0.00 | 77 | 1019.2 |
| 20260901224533 | 14 | 170 | 3.2 | 9.7 | 0.00 | 0.00 | 0.00 | 78 | 1019.3 |
| 20260901223031 | 14 | 188 | 1.6 | 9.7 | 0.00 | 0.00 | 0.00 | 79 | 1019.4 |
| 20260901221540 | 13 | 194 | 4.8 | 19.3 | 0.00 | 0.00 | 0.00 | 79 | 1019.5 |
| 20260901220030 | 13 | 138 | 3.2 | 9.7 | 0.00 | 0.00 | 0.00 | 79 | 1019.5 |
| 20260901214529 | 13 | 138 | 3.2 | 16.1 | 0.00 | 0.00 | 0.00 | 79 | 1019.4 |
| 20260901213053 | 13 | 262 | 4.8 | 16.1 | 0.00 | 0.00 | 0.00 | 78 | 1019.5 |
| 20260901211537 | 13 | 197 | 6.4 | 19.3 | 0.00 | 0.00 | 0.00 | 80 | 1019.4 |
| 20260901210031 | 13 | 335 | 6.4 | 19.3 | 0.00 | 0.00 | 0.00 | 81 | 1019.4 |
| 20260901204520 | 13 | 258 | 6.4 | 16.1 | 0.00 | 0.00 | 0.00 | 83 | 1019.3 |
| 20260901203031 | 12 | 248 | 8.0 | 19.3 | 0.00 | 0.00 | 0.00 | 83 | 1019.4 |
| 20260901201518 | 12 | 207 | 6.4 | 19.3 | 0.00 | 0.00 | 0.00 | 83 | 1019.2 |
| 20260901200034 | 12 | 210 | 3.2 | 11.3 | 0.00 | 0.00 | 0.00 | 82 | 1019.0 |
| 20260901194510 | 12 | 194 | 3.2 | 12.9 | 0.00 | 0.00 | 0.00 | 83 | 1018.9 |
| 20260901193009 | 11 | 242 | 3.2 | 8.0 | 0.00 | 0.00 | 0.00 | 83 | 1018.6 |
| 20260901191508 | 11 | 171 | 1.6 | 11.3 | 0.00 | 0.00 | 0.00 | 83 | 1018.5 |
| 20260901190007 | 11 | 219 | 3.2 | 11.3 | 0.00 | 0.00 | 0.00 | 83 | 1018.4 |